Location: Unspecified
(0.0000°N, 0.0000°E)
Time: 09:49:32
(UTC+00:00)

NNS O-29 - Pass Details

Date: 11 August 2024
Orbit: 1013 x 1173 km, 90.4° (Epoch: 07 September)

Event Time Altitude Azimuth Distance (km) Brightness Sun altitude
Rises 05:19:18 0° 140° (SE) 4,001 10.5 -11.1°
Reaches altitude 10° 05:23:12 10° 119° (ESE) 3,060 10.3 -10.1°
Maximum altitude 05:27:07 16° 85° (E) 2,666 10.6 -9.2°
Drops below altitude 10° 05:31:03 10° 51° (NE) 3,079 10.8 -8.2°
Sets 05:34:57 0° 30° (NNE) 4,041 11.0 -7.3°
